Fredericksburg, VA

5:03 AM EST on December 07, 2019 (GMT -0500)
Shannon

Weather History for KEZF - October, 2019

Change the Weather History Date:

Thursday, October 17, 2019

  Actual Average (WUND) Record (WUND)
Temperature  
Mean Temperature 54 °F -  
Max Temperature 64 °F - - (-1)
Min Temperature 44 °F - - (-1)
Degree Days  
Heating Degree Days 11    
Growing Degree Days 4 (Base 50)    
Moisture  
Dew Point 40 °F    
Average Humidity 63    
Maximum Humidity 88    
Minimum Humidity 40    
Precipitation  
Precipitation 0.00 in - - ()
Sea Level Pressure  
Sea Level Pressure 29.71 in    
Wind  
Wind Speed 8 mph ()    
Max Wind Speed 20 mph    
Max Gust Speed 26 mph    
Visibility 9.9 miles    
Events      
Averages and records for this station are not official NWS values.
T = Trace of Precipitation, MM = Missing Value Source: Averaged Metar Reports

Daily Weather History Graph

Daily Weather History Graph

Search for Another Location

Airport or City:

Astronomy

Oct. 17, 2019 Rise Set
Actual Time 7:20 AM EDT 6:29 PM EDT
Civil Twilight 6:53 AM EDT 6:56 PM EDT
Nautical Twilight 6:22 AM EDT 7:26 PM EDT
Astronomical Twilight 5:52 AM EDT 7:57 PM EDT
Moon 9:02 PM EDT (10/17) 10:47 AM EDT (10/17)
Length of Visible Light 12h 02m
Length of Day
11h 09m
Waning Gibbous, 87% of the Moon is Illuminated
Oct 17
Waning Gibbous
Oct 21
Last Quarter
Oct 27
New
Nov 4
First Quarter
Nov 12
Full

Hourly Weather History & Observations

Time (EDT) Temp. Windchill Dew Point Humidity Pressure Visibility Wind Dir Wind Speed Gust Speed Precip Events Conditions
12:15 AM 49.5 °F - 41.9 °F 75% 29.62 in 10.0 mi SW 5.8 mph - N/A   Clear
12:35 AM 48.2 °F - 42.1 °F 79% 29.62 in 10.0 mi SW 5.8 mph - N/A   Clear
12:55 AM 48.6 °F - 41.2 °F 76% 29.62 in 10.0 mi WSW 6.9 mph - N/A   Clear
1:15 AM 48.7 °F - 41.0 °F 75% 29.62 in 10.0 mi SW 6.9 mph - N/A   Clear
1:35 AM 48.0 °F - 41.0 °F 77% 29.62 in 10.0 mi SW 5.8 mph - N/A   Clear
1:55 AM 47.3 °F - 41.2 °F 79% 29.62 in 10.0 mi WSW 5.8 mph - N/A   Clear
2:15 AM 47.5 °F - 41.0 °F 78% 29.61 in 10.0 mi SW 6.9 mph - N/A   Clear
2:35 AM 46.8 °F - 41.0 °F 80% 29.62 in 10.0 mi SW 5.8 mph - N/A   Clear
3:15 AM 46.0 °F 41.4 °F 41.0 °F 83% 29.61 in 10.0 mi SW 9.2 mph - N/A   Clear
3:35 AM 46.2 °F 43.3 °F 41.2 °F 83% 29.62 in 10.0 mi SW 5.8 mph - N/A   Clear
3:55 AM 46.9 °F - 41.0 °F 80% 29.62 in 10.0 mi SW 6.9 mph - N/A   Clear
4:15 AM 46.8 °F - 41.2 °F 81% 29.62 in 10.0 mi SW 6.9 mph - N/A   Clear
4:35 AM 46.8 °F - 41.0 °F 80% 29.62 in 10.0 mi SW 6.9 mph - N/A   Clear
4:55 AM 46.6 °F - 41.4 °F 82% 29.63 in 10.0 mi SW 6.9 mph - N/A   Scattered Clouds
5:15 AM 46.6 °F - 41.4 °F 82% 29.64 in 10.0 mi SW 6.9 mph - N/A   Scattered Clouds
5:35 AM 47.1 °F - 41.2 °F 80% 29.64 in 10.0 mi SW 5.8 mph - N/A   Scattered Clouds
5:55 AM 46.8 °F - 41.2 °F 81% 29.64 in 10.0 mi WSW 5.8 mph - N/A   Scattered Clouds
6:15 AM 46.4 °F 44.3 °F 41.2 °F 82% 29.65 in 10.0 mi WSW 4.6 mph - N/A   Scattered Clouds
6:35 AM 45.3 °F 43.0 °F 41.2 °F 85% 29.65 in 10.0 mi SW 4.6 mph - N/A   Clear
6:55 AM 44.8 °F 41.0 °F 41.2 °F 87% 29.65 in 10.0 mi West 6.9 mph - N/A   Clear
7:15 AM 50.7 °F - 39.4 °F 65% 29.65 in 10.0 mi West 10.4 mph - N/A   Clear
7:35 AM 51.4 °F - 39.2 °F 63% 29.66 in 10.0 mi West 13.8 mph 20.7 mph N/A   Clear
7:55 AM 52.2 °F - 38.8 °F 60% 29.65 in 10.0 mi WNW 16.1 mph 24.2 mph N/A   Clear
8:15 AM 52.2 °F - 39.2 °F 61% 29.66 in 10.0 mi West 10.4 mph - N/A   Clear
8:35 AM 52.7 °F - 39.0 °F 60% 29.67 in 10.0 mi West 8.1 mph - N/A   Clear
8:55 AM 53.6 °F - 39.4 °F 59% 29.68 in 10.0 mi WSW 8.1 mph - N/A   Clear
9:15 AM 54.0 °F - 39.6 °F 58% 29.69 in 10.0 mi WSW 5.8 mph - N/A   Clear
9:35 AM 54.0 °F - 39.6 °F 58% 29.70 in 10.0 mi WSW 6.9 mph - N/A   Clear
9:55 AM 54.5 °F - 40.3 °F 59% 29.69 in 10.0 mi WSW 9.2 mph - N/A   Clear
10:15 AM 54.7 °F - 40.3 °F 58% 29.70 in 10.0 mi WSW 9.2 mph - N/A   Scattered Clouds
10:35 AM 55.8 °F - 41.5 °F 59% 29.71 in 10.0 mi WSW 6.9 mph - N/A   Mostly Cloudy
10:55 AM 55.6 °F - 41.2 °F 58% 29.71 in 10.0 mi WSW 8.1 mph - N/A   Overcast
11:15 AM 57.2 °F - 39.4 °F 51% 29.71 in 10.0 mi West 12.7 mph 18.4 mph N/A   Overcast
11:35 AM 58.8 °F - 40.5 °F 51% 29.71 in 10.0 mi West 12.7 mph 21.9 mph N/A   Overcast
11:55 AM 59.4 °F - 39.7 °F 48% 29.71 in 10.0 mi WNW 13.8 mph 26.5 mph N/A   Mostly Cloudy
12:15 PM 59.5 °F - 39.2 °F 47% 29.71 in 10.0 mi West 15.0 mph 21.9 mph N/A   Mostly Cloudy
12:35 PM 59.9 °F - 39.6 °F 47% 29.71 in 10.0 mi West 19.6 mph 24.2 mph N/A   Mostly Cloudy
12:55 PM 60.3 °F - 39.9 °F 47% 29.72 in 10.0 mi WNW 12.7 mph 24.2 mph N/A   Mostly Cloudy
1:15 PM 60.1 °F - 39.0 °F 46% 29.71 in 10.0 mi West 19.6 mph 24.2 mph N/A   Overcast
1:35 PM 62.1 °F - 39.9 °F 44% 29.71 in 10.0 mi WNW 15.0 mph 26.5 mph N/A   Mostly Cloudy
1:55 PM 62.4 °F - 39.7 °F 43% 29.71 in 10.0 mi WNW 17.3 mph 23.0 mph N/A   Mostly Cloudy
2:35 PM 62.8 °F - 39.7 °F 43% 29.71 in 10.0 mi WNW 15.0 mph 24.2 mph N/A   Mostly Cloudy
2:55 PM 64.2 °F - 40.3 °F 41% 29.70 in 10.0 mi NW 13.8 mph 20.7 mph N/A   Mostly Cloudy
3:15 PM 64.0 °F - 39.4 °F 40% 29.70 in 10.0 mi NW 18.4 mph 26.5 mph N/A   Scattered Clouds
3:35 PM 63.3 °F - 39.6 °F 42% 29.71 in 10.0 mi WNW 11.5 mph 23.0 mph N/A   Clear
3:55 PM 63.1 °F - 38.5 °F 40% 29.71 in 10.0 mi WNW 17.3 mph 25.3 mph N/A   Scattered Clouds
4:15 PM 63.5 °F - 39.2 °F 41% 29.71 in 10.0 mi NW 13.8 mph 23.0 mph N/A   Scattered Clouds
4:35 PM 63.3 °F - 39.4 °F 41% 29.72 in 10.0 mi WNW 8.1 mph 19.6 mph N/A   Clear
4:55 PM 63.0 °F - 39.6 °F 42% 29.72 in 10.0 mi NW 4.6 mph - N/A   Clear
5:15 PM 62.6 °F - 38.5 °F 41% 29.73 in 10.0 mi WNW 11.5 mph 17.3 mph N/A   Clear
5:35 PM 61.5 °F - 38.7 °F 43% 29.73 in 10.0 mi WNW 11.5 mph 18.4 mph N/A   Clear
5:55 PM 60.4 °F - 38.3 °F 44% 29.74 in 10.0 mi NW 10.4 mph 16.1 mph N/A   Clear
6:15 PM 59.7 °F - 38.5 °F 45% 29.75 in 10.0 mi WNW 9.2 mph - N/A   Clear
6:35 PM 58.5 °F - 38.5 °F 47% 29.76 in 10.0 mi NW 8.1 mph 16.1 mph N/A   Clear
6:55 PM 57.2 °F - 39.0 °F 51% 29.77 in 10.0 mi WNW 3.5 mph - N/A   Clear
7:15 PM 56.5 °F - 39.2 °F 52% 29.78 in 10.0 mi NW 5.8 mph - N/A   Clear
7:35 PM 56.1 °F - 38.7 °F 52% 29.79 in 10.0 mi WNW 6.9 mph - N/A   Clear
7:55 PM 55.6 °F - 38.5 °F 53% 29.79 in 10.0 mi West 8.1 mph - N/A   Clear
8:15 PM 54.9 °F - 38.5 °F 54% 29.80 in 10.0 mi WNW 8.1 mph - N/A   Clear
8:35 PM 54.7 °F - 37.9 °F 53% 29.81 in 10.0 mi Calm Calm - N/A   Clear
9:15 PM 52.3 °F - 39.6 °F 62% 29.82 in 10.0 mi WNW 6.9 mph - N/A   Clear
9:35 PM 51.3 °F - 39.2 °F 63% 29.83 in 3.0 mi SE 3.5 mph - N/A   Haze
9:55 PM 50.0 °F - 40.1 °F 69% 29.85 in 10.0 mi Calm Calm - N/A   Clear
10:15 PM 45.7 °F - 41.2 °F 84% 29.86 in 10.0 mi Calm Calm - N/A   Clear
10:35 PM 45.7 °F - 41.7 °F 86% 29.86 in 10.0 mi Calm Calm - N/A   Clear
10:55 PM 45.1 °F 41.4 °F 41.5 °F 87% 29.86 in 10.0 mi WNW 6.9 mph - N/A   Clear
11:15 PM 44.1 °F - 40.8 °F 88% 29.87 in 10.0 mi Calm Calm - N/A   Clear
11:35 PM 44.8 °F 43.3 °F 41.0 °F 87% 29.88 in 10.0 mi NNW 3.5 mph - N/A   Clear
11:55 PM 47.7 °F - 39.9 °F 75% 29.87 in 10.0 mi NW 10.4 mph - N/A   Clear